Location: Newark
(43.2700°N, 11.0700°E)
Time: 23:46:12
(UTC+00:00)

Envisat - Visible Passes

Search period start: 24 July 2021 00:00
Search period end: 03 August 2021 00:00
Orbit: 764 x 766 km, 98.1° (Epoch: 24 July)

Date Brightness Start Highest point End Pass type
(mag) Time Alt. Az. Time Alt. Az. Time Alt. Az.
24 Jul 6.1 03:07:06 10° ENE 03:08:19 11° E 03:09:32 10° E visible
29 Jul 5.8 03:19:26 10° NE 03:22:23 15° E 03:25:18 10° SE visible
01 Aug 6.0 03:08:55 10° ENE 03:10:45 12° E 03:12:35 10° ESE visible
